Powrót do katalogu

STARLINK-35227

AktywnyŁącznośćSSO
NORAD 65654·PAYLOAD·🇺🇸 United States

Wystrzelony Sep 19, 2025 z Vandenberg Space Force Base

Loading…

Następne Przeloty (najbliższe 24 godziny)

TLE

ŚwieżeSource: CelesTrak SupGP

Epoka: Sep 15, 2026, 03:39 UTC

1 65654C 25211C   26258.15256944 -.00045518  00000+0 -14131-2 0  2580
2 65654  97.2834 298.4041 0001111  96.4392 136.2855 15.33460334    19

Śledź STARLINK-35227 w czasie rzeczywistym z AllMySat

Download on the App Store